Tacoma Narrows, WA
on Thursday, February 7, 2013

Thursday
Previous Day Next Day
Daily Summary
 ActualAverageRecord
Temperature
Mean Temperature °F °F  
Max Temperature 48°F 46°F 59°F (2012)
Min Temperature 39°F 36°F 23°F (2014)
Degree Days
Heating Degree Days 22    
Moisture
Dew Point 35°F   
Average Humidity 74    
Maximum Humidity 86    
Minimum Humidity 50    
Precipitation
Precipitation 0.08 in in in ()
Wind
Wind Speed 12 mph   
Max Wind Speed 20 mph   
Max Gust Speed 28 mph   
Visibility 10 miles   
Events Rain   
Averages and records for this station are not official NWS values.
Key: T is trace of precipitation, MM is missing value
Source: NWS Daily Summary
Seasonal Weather Averages
Time(PST)TemperatureDew PointHumidity Pressure Visibility Wind DirectionWind SpeedGust SpeedPrecipitationEvents Conditions
12:39 AM 42.8°F 37.4°F 81% 29.83 in 8.0 miles SW 13.8 mph 25.3 mph 0.05 in Rain Light Rain
12:53 AM 43.0°F 37.0°F 80% 29.84 in 8.0 miles South 19.6 mph 27.6 mph 0.06 in Rain Light Rain
1:05 AM 42.8°F 37.4°F 81% 29.84 in 10.0 miles South 17.3 mph 23.0 mph 0.01 in Rain Light Rain
1:53 AM 43.0°F 37.9°F 82% 29.86 in 10.0 miles South 11.5 mph 21.9 mph 0.01 in   Overcast
2:53 AM 43.0°F 36.0°F 76% 29.89 in 10.0 miles South 15.0 mph 20.7 mph N/A   Overcast
3:53 AM 43.0°F 35.1°F 74% 29.91 in 10.0 miles South 13.8 mph 23.0 mph N/A   Overcast
4:10 AM 42.8°F 35.6°F 76% 29.91 in 10.0 miles South 13.8 mph 21.9 mph N/A   Overcast
4:27 AM 42.8°F 35.6°F 76% 29.93 in 10.0 miles South 13.8 mph - N/A   Overcast
4:51 AM 42.8°F 35.6°F 76% 29.94 in 10.0 miles South 15.0 mph 24.2 mph N/A   Overcast
4:53 AM 42.1°F 35.1°F 76% 29.94 in 10.0 miles SSW 11.5 mph 20.7 mph N/A   Overcast
5:53 AM 41.0°F 35.1°F 79% 29.96 in 10.0 miles South 13.8 mph - 0.00 in Rain Light Rain
6:41 AM 41.0°F 35.6°F 81% 29.96 in 10.0 miles South 10.4 mph - 0.01 in   Overcast
6:53 AM 41.0°F 36.0°F 82% 29.98 in 10.0 miles South 12.7 mph - 0.01 in   Overcast
7:21 AM 41.0°F 35.6°F 81% 29.97 in 10.0 miles South 12.7 mph - N/A   Overcast
7:24 AM 41.0°F 35.6°F 81% 29.97 in 10.0 miles South 12.7 mph - N/A   Overcast
7:53 AM 39.9°F 35.1°F 83% 29.99 in 10.0 miles South 15.0 mph - N/A   Partly Cloudy
8:24 AM 41.0°F 35.6°F 81% 30.00 in 10.0 miles South 8.1 mph - N/A   Overcast
8:53 AM 41.0°F 37.0°F 86% 30.01 in 10.0 miles South 8.1 mph - N/A   Overcast
8:56 AM 41.0°F 35.6°F 81% 30.00 in 10.0 miles South 9.2 mph - N/A   Overcast
9:53 AM 44.1°F 36.0°F 73% 30.02 in 10.0 miles South 9.2 mph 17.3 mph N/A   Mostly Cloudy
10:53 AM 46.0°F 36.0°F 68% 30.04 in 10.0 miles South 9.2 mph - N/A   Mostly Cloudy
11:53 AM 46.9°F 35.1°F 63% 30.04 in 10.0 miles Variable 6.9 mph - N/A   Scattered Clouds
12:53 PM 46.0°F 35.1°F 66% 30.03 in 10.0 miles West 4.6 mph - N/A   Scattered Clouds
1:53 PM 46.0°F 33.1°F 61% 30.03 in 10.0 miles Variable 3.5 mph - N/A   Scattered Clouds
2:53 PM 48.0°F 32.0°F 54% 30.04 in 10.0 miles Calm Calm - N/A   Scattered Clouds
3:53 PM 48.0°F 30.0°F 50% 30.04 in 10.0 miles Calm Calm - N/A   Partly Cloudy
4:53 PM 46.9°F 30.9°F 54% 30.06 in 10.0 miles WNW 3.5 mph - N/A   Clear
5:53 PM 44.1°F 30.0°F 58% 30.08 in 10.0 miles Variable 4.6 mph - N/A   Clear
6:53 PM 39.9°F 30.0°F 68% 30.10 in 10.0 miles NNW 5.8 mph - N/A   Clear
7:53 PM 39.9°F 33.1°F 77% 30.12 in 10.0 miles North 5.8 mph - N/A   Clear
8:53 PM 39.9°F 34.0°F 79% 30.14 in 10.0 miles North 6.9 mph - N/A   Clear
9:53 PM 41.0°F 34.0°F 76% 30.16 in 10.0 miles North 6.9 mph - N/A   Clear
10:53 PM 41.0°F 34.0°F 76% 30.17 in 10.0 miles North 6.9 mph - N/A   Clear
11:53 PM 39.9°F 35.1°F 83% 30.19 in 10.0 miles North 4.6 mph - N/A   Clear
Moon Phase
Feb. 07 Feb. 10 Feb. 17 Feb. 25 Mar. 04
Sunrise:07:27 AM (PST) Moon Rise:05:17 AM (PST)2/7
Sunset:05:22 PM (PST) Moon Set:02:47 PM (PST)2/7

Copyright © 2014 The Weather Underground, Inc.